RH
29 31 33 41 48 50 50 50 52 53 54 56 56 58 55 58 57 50 48 45 45 50 51 53 55 59 65 71 69 74 78 79 82 90 86 84 94 93 88 73 73 78 78
30 31 34 38 43 47 50 49 51 52 53 61 62 62 60 61 59 56 50 46 44 50 42 52 56 57 59 66 68 73 78 80 80 88 89 95 94 94 90 87 76 66 70
31 32 35 39 42 46 50 48 51 51 54 56 59 55 56 56 55 54 53 52 47 51 50 51 54 54 59 63 66 72 76 83 79 79 88 94 96 89 94 92 83 66 59
31 32 35 38 41 43 45 48 49 50 46 54 61 61 61 58 62 60 56 54 51 52 52 53 51 55 57 59 60 53 72 77 80 79 70 81 84 88 88 75 76 74 58
34 37 38 36 38 40 46 48 49 52 52 55 57 63 62 64 66 60 58 55 54 52 54 55 54 54 58 57 57 59 65 70 78 80 82 82 83 79 91 93 88 72 78
42 40 39 38 42 43 47 49 51 53 54 56 57 58 60 62 63 64 63 62 58 57 55 53 54 54 56 57 58 59 60 65 70 74 76 80 84 82 86 86 79 82 78
48 47 48 50 48 50 50 48 55 56 57 58 58 58 58 60 64 65 68 65 62 61 58 54 56 55 54 56 57 59 63 66 70 71 75 74 75 75 78 80 82 83 75
60 60 62 60 57 53 57 60 60 62 62 62 61 61 59 65 64 66 67 65 63 61 55 53 52 53 54 56 56 61 63 60 66 65 67 70 70 71 73 79 85 85 75
76 76 73 72 73 73 69 66 66 66 66 63 64 63 63 60 63 62 63 64 59 50 49 54 54 54 55 56 57 61 60 59 62 64 66 68 68 70 72 74 79 82 88
86 90 93 90 93 84 82 76 73 74 69 64 66 57 62 60 59 59 58 57 59 57 57 57 57 57 58 57 57 59 59 61 62 58 62 64 64 66 69 74 71 73 81
93 94 96 94 94 94 94 94 83 79 74 70 71 69 66 62 59 58 57 57 56 59 62 62 62 61 61 59 60 59 59 60 61 62 64 65 63 67 67 69 68 72 76
93 93 93 94 96 96 95 96 91 88 80 77 77 70 65 63 63 61 58 58 59 59 61 62 64 64 63 62 63 65 62 63 64 63 64 65 55 66 66 68 70 73 73
94 93 95 95 96 96 97 92 94 94 86 84 81 75 72 70 69 66 63 62 63 62 61 59 65 66 65 65 64 64 64 64 64 63 65 64 64 70 68 66 70 73 64
88 89 97 96 94 93 90 93 92 92 91 88 84 84 79 73 73 72 70 68 66 66 63 63 64 65 66 63 64 63 64 64 62 64 65 65 66 68 69 70 70 65 71
89 90 97 99 97 96 96 95 93 94 90 93 90 87 80 77 76 74 71 69 66 62 65 65 66 66 64 57 64 65 74 81 82 76 72 73 72 70 67 68 82 83 84
88 88 87 89 93 96 96 95 93 92 93 95 94 90 87 84 80 77 72 69 68 69 68 69 70 72 60 72 75 72 78 87 86 79 74 70 71 70 68 66 71 76 92
96 90 91 93 93 93 92 94 92 92 96 98 94 93 91 90 87 79 76 74 75 73 75 73 72 73 71 77 76 77 76 83 82 80 77 72 60 65 62 68 68 67 72
93 91 92 90 91 89 92 94 95 96 97 96 96 93 92 92 88 88 85 81 78 80 79 76 72 72 65 76 75 74 70 85 80 76 75 76 74 71 69 67 70 71 66
91 92 93 91 91 92 90 96 96 94 95 95 94 92 91 93 92 93 92 88 88 84 79 70 72 73 69 77 74 70 76 79 75 70 71 72 74 76 73 68 82 86 83
91 90 89 88 93 89 91 97 94 94 95 92 91 91 93 96 95 92 92 91 92 88 71 72 70 76 70 76 76 71 74 94 83 73 67 68 63 64 64 68 85 94 85
87 83 87 91 88 88 91 94 92 94 88 88 92 93 94 94 92 93 92 92 93 91 91 84 80 71 69 69 73 73 69 82 86 84 83 68 67 65 62 61 59 73 72
68 66 84 86 84 86 90 89 90 84 89 91 94 93 93 92 89 92 92 93 94 94 92 89 85 75 69 72 71 70 68 67 78 84 76 82 70 66 71 75 82 76 69
60 62 81 78 82 85 88 87 79 88 88 94 94 92 92 91 91 94 94 95 91 94 91 91 87 84 74 69 72 70 69 69 70 77 67 66 73 70 65 65 65 64 61
55 53 57 61 64 75 72 77 83 83 94 94 90 89 93 92 89 92 91 92 93 92 92 91 92 84 82 79 71 70 87 90 75 74 89 89 72 67 65 64 61 58 60
56 56 59 60 62 61 66 81 68 71 83 88 90 92 88 91 92 90 90 93 89 90 88 84 81 91 91 85 79 85 89 87 89 86 88 74 73 72 69 67 65 67 66
68 67 65 67 70 73 80 75 75 81 89 93 88 89 86 88 89 90 88 79 71 67 64 64 69 77 80 77 84 83 83 88 75 89 86 84 78 78 76 76 76 73 74
Wind_Speed
8 8 7 7 7 7 7 7 7 7 7 7 6 4 7 5 5 7 9 12 12 12 9 8 9 10 9 9 11 10 12 8 11 8 10 8 10 11 10 11 9 8 9
7 8 8 7 7 6 6 7 7 7 6 4 4 3 4 3 3 5 6 9 10 10 12 11 9 10 9 10 10 11 9 5 10 9 8 6 3 3 7 5 6 12 9
11 7 7 7 6 6 5 6 6 6 6 7 3 3 3 3 6 9 8 9 10 9 10 9 8 10 8 8 9 8 11 9 7 8 5 6 5 11 4 9 10 14 11
9 7 7 6 6 4 5 5 5 5 6 6 5 6 4 4 4 5 7 8 9 9 9 9 9 8 7 9 8 9 8 8 9 6 5 8 8 5 10 8 11 12 13
10 8 7 6 5 5 4 4 5 5 5 6 5 4 4 3 3 5 8 9 8 9 9 9 9 9 7 8 10 10 9 6 7 7 7 7 6 10 9 11 8 13 9
8 7 6 6 5 4 5 4 5 5 5 5 6 5 5 5 5 5 6 6 7 8 8 10 9 9 7 9 9 10 10 9 8 8 7 7 5 8 7 9 14 13 12
8 7 7 5 4 4 4 4 5 5 6 6 6 6 5 5 5 5 4 7 7 8 10 11 10 8 10 10 10 10 10 9 9 10 8 7 8 8 9 11 12 11 12
7 7 7 6 4 4 4 5 5 4 5 5 5 5 5 3 4 4 4 5 6 7 11 10 10 12 12 11 10 9 9 10 9 12 11 9 8 8 9 9 10 14 11
7 8 6 5 4 4 4 5 5 4 5 5 5 5 5 7 6 7 6 5 7 9 10 11 12 12 12 12 13 9 11 10 10 10 11 10 9 9 9 9 9 11 13
5 3 4 5 3 4 5 6 5 5 6 6 5 7 7 7 8 8 9 9 8 9 10 11 12 13 13 12 12 11 11 12 10 10 12 12 10 10 9 9 10 10 12
4 5 4 4 4 3 2 3 5 6 6 7 7 7 8 9 8 9 9 9 10 11 11 11 13 13 14 13 12 13 14 14 14 12 13 15 14 11 10 9 10 11 11
5 5 5 4 4 1 1 3 4 5 5 6 7 8 9 9 9 9 10 10 11 11 12 12 13 13 13 14 14 14 13 15 16 15 14 15 11 15 13 10 13 11 11
3 1 3 3 3 2 2 3 4 5 6 7 8 10 9 9 10 10 11 11 12 12 13 13 14 14 14 14 14 15 15 15 16 16 16 16 15 15 12 13 12 11 11
1 2 4 2 1 2 2 3 6 4 6 7 8 9 10 10 10 11 12 12 12 13 13 13 14 15 15 15 15 15 16 17 16 16 17 16 16 17 16 14 14 13 13
4 5 2 2 2 3 4 4 5 5 6 7 8 10 10 10 11 11 12 12 12 12 13 14 14 15 14 12 14 16 16 16 17 17 17 17 20 28 25 14 14 13 12
4 4 5 5 5 4 4 5 6 7 4 7 9 9 10 11 11 12 12 13 13 13 13 13 14 15 13 23 27 25 17 17 16 17 17 16 24 23 30 31 33 26 16
4 6 6 6 6 7 6 6 8 7 6 6 8 8 9 10 11 12 13 13 13 13 13 14 14 16 16 26 29 30 16 16 15 17 16 16 14 22 17 22 29 29 31
7 8 7 8 8 7 7 7 6 7 6 8 8 8 8 10 11 11 13 13 12 13 13 14 15 16 15 28 29 31 18 14 16 17 17 18 18 18 19 18 19 19 19
9 8 8 10 9 8 9 6 7 8 7 9 9 9 9 10 11 12 12 12 12 13 13 14 15 16 16 28 29 27 16 16 18 17 17 17 19 24 30 20 19 18 18
7 9 10 10 7 10 9 6 9 8 10 10 10 9 9 9 11 12 12 12 12 14 13 15 14 20 17 26 29 25 13 14 12 15 16 25 24 30 31 20 17 17 17
8 8 8 8 9 8 7 8 9 9 12 10 9 9 8 9 11 12 11 12 12 13 13 14 14 16 17 18 28 29 15 13 13 13 11 11 27 30 31 32 19 21 21
10 11 7 7 8 8 7 9 9 11 8 8 7 8 8 8 9 11 12 12 12 12 12 12 13 11 14 23 24 30 29 27 15 15 13 14 29 34 35 30 31 34 31
12 10 7 9 7 7 6 9 10 7 7 6 7 8 8 9 9 11 12 9 10 9 10 10 11 12 12 12 26 29 29 29 20 13 23 37 36 34 29 32 33 32 15
14 13 12 13 14 8 9 9 9 7 5 7 9 9 9 11 9 6 8 9 9 9 9 10 10 11 13 12 12 13 14 20 18 23 18 20 28 30 25 22 18 13 14
14 13 13 14 15 12 12 7 9 10 11 10 10 10 9 10 9 9 9 9 9 11 11 10 11 12 13 13 26 25 15 15 20 25 12 12 12 12 12 12 13 12 13
15 14 15 15 16 14 11 11 11 10 10 11 10 9 8 8 8 9 10 18 22 23 25 28 21 12 24 31 32 32 33 34 32 14 11 12 12 13 13 13 13 13 18
Wind_Direction
136 117 104 100 77 48 41 31 30 22 26 17 6 16 9 15 21 15 6 7 1 358 4 2 356 356 359 353 353 348 349 347 350 328 324 290 244 227 230 239 242 237 213
124 117 102 86 76 65 48 35 28 23 27 19 8 8 333 1 5 1 4 4 2 355 3 354 353 355 350 353 354 350 351 336 351 350 292 321 292 305 255 249 242 251 236
136 124 106 99 84 73 58 51 34 26 32 16 358 357 339 354 1 359 353 355 354 359 359 352 352 349 350 347 346 343 359 340 342 352 295 322 326 343 294 242 245 243 236
128 127 121 108 108 94 70 54 42 30 35 17 25 30 16 354 346 332 333 340 346 351 351 349 351 342 346 338 339 347 337 335 327 335 338 330 314 323 319 320 314 251 243
142 134 132 128 117 94 80 55 39 31 27 22 20 20 6 327 318 329 337 335 339 340 340 343 338 340 333 335 334 330 329 320 309 313 312 302 304 270 258 283 324 332 306
132 134 139 125 110 72 58 46 42 25 18 17 9 6 351 333 338 333 335 332 330 328 333 331 332 324 328 327 322 320 318 315 302 297 295 291 292 305 298 305 296 295 293
146 152 145 130 113 82 54 28 31 8 6 6 359 349 342 335 326 321 318 321 321 321 320 324 322 324 319 317 316 310 307 305 300 294 290 285 278 279 280 288 294 295 297
163 162 160 151 131 88 56 29 10 359 359 359 341 343 339 332 314 299 299 298 301 302 306 310 318 316 314 311 309 305 301 298 299 292 287 285 280 277 277 276 293 293 284
182 177 161 132 94 62 34 11 356 354 358 345 357 339 340 327 316 312 303 296 297 301 307 311 309 308 308 307 306 300 297 295 293 290 290 286 283 276 273 272 267 272 284
192 133 96 103 78 44 10 1 354 352 343 349 352 335 318 315 313 308 306 305 304 305 306 305 303 303 302 301 299 297 294 293 290 286 283 283 282 280 273 268 267 265 278
133 156 127 120 109 89 22 338 348 347 341 341 328 319 313 311 308 304 304 306 308 306 304 302 300 299 299 298 295 292 292 288 290 288 284 282 285 280 277 272 271 270 267
142 144 152 140 125 174 344 323 327 332 326 322 316 309 307 310 308 303 303 305 301 299 298 297 294 294 293 293 291 290 289 287 286 285 281 277 279 277 276 273 272 273 274
93 97 114 147 172 208 275 311 309 302 314 318 316 310 306 306 303 302 304 305 304 304 303 300 296 294 293 291 288 285 284 281 279 279 276 276 273 272 271 269 267 268 267
126 193 54 28 348 309 292 298 307 301 305 310 309 305 304 308 304 302 301 299 298 298 297 294 293 291 291 289 287 284 280 275 273 273 271 271 267 266 266 262 264 264 264
54 41 17 322 307 307 307 305 287 294 303 300 305 298 303 304 297 296 295 294 294 294 293 295 292 291 289 286 287 282 280 278 274 271 270 267 264 267 266 263 259 255 253
342 340 333 323 304 275 270 279 286 288 292 295 289 294 302 296 293 295 298 298 296 295 295 292 291 291 287 291 294 293 287 280 279 280 276 272 274 275 276 272 268 262 260
290 299 285 274 273 273 261 268 274 281 286 275 288 290 287 288 291 295 297 295 295 297 293 292 291 289 288 292 293 292 292 288 282 281 282 280 275 279 276 276 275 275 272
272 276 269 269 263 258 260 250 262 267 268 278 277 276 275 279 287 291 290 292 294 293 293 293 292 290 290 294 299 297 294 288 282 277 273 270 270 267 269 265 262 258 257
253 250 248 255 255 256 260 245 264 265 267 268 269 268 270 276 283 287 288 288 291 290 292 292 294 293 294 294 298 303 293 285 280 276 272 269 269 268 272 272 269 264 256
254 262 258 256 251 255 256 246 258 257 265 264 260 258 257 263 278 281 286 286 282 286 293 296 296 292 296 296 298 298 290 286 288 283 277 276 277 279 279 275 271 268 263
267 268 261 247 249 253 246 250 256 253 256 261 255 258 254 258 267 274 278 282 283 283 284 293 293 293 290 291 297 298 298 292 287 284 288 283 284 287 284 279 271 266 268
290 288 278 270 266 258 250 258 259 260 254 254 257 262 260 263 277 276 280 276 276 282 289 293 295 292 291 290 294 302 302 302 299 291 284 280 286 284 280 277 272 270 272
285 285 264 274 264 256 247 262 272 258 263 261 262 268 267 267 269 273 275 279 282 276 290 289 293 294 294 293 298 304 304 300 295 293 292 291 291 292 292 282 280 278 273
282 281 281 285 283 262 262 268 265 264 253 267 278 279 273 279 273 275 275 276 282 283 280 285 285 298 297 298 301 295 291 297 302 293 284 293 297 299 286 287 282 270 263
278 276 277 279 278 279 273 256 282 288 284 280 278 276 276 275 275 269 273 268 268 267 284 302 297 299 298 299 302 308 311 305 299 313 306 303 296 290 285 280 276 271 267
276 276 274 273 275 276 273 279 274 273 272 276 275 272 277 281 278 279 284 280 290 297 308 308 304 298 303 306 309 315 309 311 317 319 309 296 290 286 284 279 277 272 270